| time (UTC) | temp F | wind direction | speed MPH | gust MPH | rain 1hr in | rain 24hr in | rain mn in | humidity % | barometer mb |
| 20260507193041 | 55 | 342 | 3.0 | 12.0 | 0.00 | 0.60 | 0.00 | 46 | 1006.0 |
| 20260507192539 | 55 | 286 | 2.0 | 9.0 | 0.00 | 0.60 | 0.00 | 45 | 1006.2 |
| 20260507192038 | 55 | 336 | 2.0 | 10.0 | 0.00 | 0.60 | 0.00 | 44 | 1006.1 |
| 20260507191543 | 56 | 278 | 4.0 | 10.0 | 0.00 | 0.60 | 0.00 | 42 | 1006.0 |
| 20260507191039 | 57 | 40 | 4.0 | 14.0 | 0.00 | 0.60 | 0.00 | 44 | 1006.2 |
| 20260507190538 | 57 | 236 | 7.0 | 14.0 | 0.00 | 0.60 | 0.00 | 43 | 1006.1 |
| 20260507190037 | 57 | 279 | 6.0 | 21.0 | 0.00 | 0.60 | 0.00 | 42 | 1006.3 |
| 20260507185538 | 57 | 244 | 8.0 | 16.0 | 0.00 | 0.64 | 0.00 | 44 | 1006.2 |
| 20260507185038 | 55 | 263 | 7.0 | 15.0 | 0.00 | 0.64 | 0.00 | 44 | 1006.5 |
| 20260507184538 | 55 | 227 | 4.0 | 16.0 | 0.00 | 0.64 | 0.00 | 46 | 1006.5 |
| 20260507184037 | 56 | 310 | 7.0 | 17.0 | 0.00 | 0.64 | 0.00 | 40 | 1006.5 |
| 20260507183535 | 58 | 322 | 4.0 | 9.0 | 0.00 | 0.64 | 0.00 | 48 | 1006.5 |
| 20260507183043 | 56 | 329 | 3.0 | 9.0 | 0.00 | 0.64 | 0.00 | 47 | 1006.4 |
| 20260507182535 | 56 | 94 | 4.0 | 15.0 | 0.00 | 0.64 | 0.00 | 44 | 1006.6 |
| 20260507182035 | 57 | 309 | 6.0 | 18.0 | 0.00 | 0.64 | 0.00 | 43 | 1006.5 |
| 20260507181538 | 57 | 190 | 8.0 | 18.0 | 0.00 | 0.64 | 0.00 | 45 | 1006.5 |
| 20260507181035 | 56 | 46 | 4.0 | 20.0 | 0.00 | 0.64 | 0.00 | 47 | 1006.4 |
| 20260507180534 | 57 | 294 | 9.0 | 20.0 | 0.00 | 0.64 | 0.00 | 46 | 1006.4 |
| 20260507180035 | 57 | 142 | 2.0 | 14.0 | 0.00 | 0.64 | 0.00 | 53 | 1006.6 |
| 20260507175536 | 56 | 155 | 1.0 | 18.0 | 0.00 | 0.74 | 0.00 | 48 | 1006.5 |
| 20260507175033 | 56 | 192 | 7.0 | 18.0 | 0.00 | 0.74 | 0.00 | 43 | 1006.5 |
| 20260507174535 | 56 | 211 | 4.0 | 17.0 | 0.00 | 0.74 | 0.00 | 46 | 1006.6 |
| 20260507174032 | 57 | 275 | 6.0 | 17.0 | 0.00 | 0.74 | 0.00 | 49 | 1006.6 |
| 20260507173532 | 56 | 242 | 8.0 | 17.0 | 0.00 | 0.74 | 0.00 | 46 | 1006.4 |
| 20260507173034 | 56 | 215 | 7.0 | 12.0 | 0.00 | 0.74 | 0.00 | 50 | 1006.6 |
| 20260507172531 | 55 | 288 | 3.0 | 14.0 | 0.00 | 0.74 | 0.00 | 58 | 1006.9 |
| 20260507172030 | 55 | 360 | 2.0 | 14.0 | 0.00 | 0.74 | 0.00 | 51 | 1006.8 |
| 20260507171532 | 54 | 276 | 4.0 | 15.0 | 0.00 | 0.74 | 0.00 | 47 | 1006.9 |
| 20260507171030 | 55 | 279 | 8.0 | 19.0 | 0.00 | 0.74 | 0.00 | 47 | 1006.9 |
| 20260507170530 | 56 | 327 | 3.0 | 19.0 | 0.00 | 0.74 | 0.00 | 50 | 1007.0 |
| 20260507170029 | 57 | 302 | 8.0 | 19.0 | 0.00 | 0.74 | 0.00 | 55 | 1007.0 |
| 20260507165528 | 56 | 290 | 6.0 | 17.0 | 0.00 | 0.76 | 0.00 | 55 | 1006.9 |
| 20260507165028 | 55 | 302 | 2.0 | 11.0 | 0.00 | 0.76 | 0.00 | 53 | 1007.1 |
| 20260507164528 | 56 | 264 | 5.0 | 10.0 | 0.00 | 0.76 | 0.00 | 53 | 1007.1 |
| 20260507164027 | 54 | 346 | 2.0 | 12.0 | 0.00 | 0.76 | 0.00 | 61 | 1007.1 |
| 20260507163526 | 53 | 261 | 6.0 | 12.0 | 0.00 | 0.76 | 0.00 | 58 | 1007.2 |
| 20260507163028 | 54 | 249 | 5.0 | 12.0 | 0.00 | 0.76 | 0.00 | 64 | 1007.5 |
| 20260507162525 | 52 | 284 | 3.0 | 18.0 | 0.00 | 0.76 | 0.00 | 64 | 1007.6 |
| 20260507162024 | 51 | 259 | 7.0 | 18.0 | 0.00 | 0.76 | 0.00 | 60 | 1007.7 |
| 20260507161525 | 53 | 174 | 7.0 | 12.0 | 0.00 | 0.76 | 0.00 | 62 | 1007.8 |
| 20260507161023 | 53 | 5 | 2.0 | 8.0 | 0.00 | 0.76 | 0.00 | 64 | 1007.8 |
| 20260507160526 | 53 | 13 | 2.0 | 9.0 | 0.00 | 0.76 | 0.00 | 59 | 1007.7 |
| 20260507160030 | 54 | 309 | 3.0 | 9.0 | 0.00 | 0.76 | 0.00 | 67 | 1007.9 |
| 20260507155524 | 53 | 89 | 3.0 | 16.0 | 0.00 | 0.76 | 0.00 | 61 | 1007.8 |
| 20260507155020 | 52 | 244 | 3.0 | 16.0 | 0.00 | 0.76 | 0.00 | 63 | 1007.9 |
| 20260507154620 | 52 | 252 | 7.0 | 15.0 | 0.00 | 0.76 | 0.00 | 69 | 1008.0 |
| 20260507154020 | 51 | 267 | 7.0 | 16.0 | 0.00 | 0.76 | 0.00 | 66 | 1008.1 |
| 20260507153519 | 53 | 284 | 5.0 | 16.0 | 0.00 | 0.76 | 0.00 | 68 | 1008.0 |
| 20260507153018 | 52 | 32 | 4.0 | 17.0 | 0.00 | 0.76 | 0.00 | 69 | 1008.0 |
| 20260507152519 | 53 | 259 | 8.0 | 17.0 | 0.00 | 0.76 | 0.00 | 68 | 1007.9 |
| 20260507152018 | 53 | 287 | 7.0 | 16.0 | 0.00 | 0.76 | 0.00 | 67 | 1007.9 |
| 20260507151517 | 52 | 261 | 7.0 | 16.0 | 0.00 | 0.76 | 0.00 | 67 | 1007.9 |
| 20260507151016 | 53 | 281 | 6.0 | 12.0 | 0.00 | 0.76 | 0.00 | 69 | 1008.0 |
| 20260507150516 | 52 | 234 | 3.0 | 11.0 | 0.00 | 0.76 | 0.00 | 73 | 1008.1 |
| 20260507150017 | 52 | 51 | 3.0 | 11.0 | 0.00 | 0.76 | 0.00 | 73 | 1008.0 |
| 20260507145516 | 52 | 301 | 3.0 | 8.0 | 0.00 | 0.76 | 0.00 | 70 | 1008.1 |
| 20260507145016 | 53 | 12 | 2.0 | 10.0 | 0.00 | 0.76 | 0.00 | 71 | 1008.1 |
| 20260507144515 | 52 | 338 | 1.0 | 11.0 | 0.00 | 0.76 | 0.00 | 73 | 1008.1 |
| 20260507144015 | 52 | 325 | 5.0 | 11.0 | 0.00 | 0.76 | 0.00 | 71 | 1008.0 |
| 20260507143514 | 52 | 183 | 2.0 | 10.0 | 0.00 | 0.76 | 0.00 | 76 | 1008.0 |
| 20260507143031 | 52 | 279 | 5.0 | 9.0 | 0.00 | 0.76 | 0.00 | 76 | 1008.1 |
| 20260507142512 | 50 | 295 | 2.0 | 13.0 | 0.00 | 0.76 | 0.00 | 80 | 1008.1 |
| 20260507142011 | 49 | 184 | 3.0 | 15.0 | 0.00 | 0.76 | 0.00 | 78 | 1008.0 |
| 20260507141511 | 49 | 240 | 7.0 | 15.0 | 0.00 | 0.76 | 0.00 | 78 | 1008.1 |
| 20260507141012 | 50 | 215 | 6.0 | 13.0 | 0.00 | 0.76 | 0.00 | 78 | 1008.1 |
| 20260507140510 | 50 | 281 | 2.0 | 10.0 | 0.00 | 0.76 | 0.00 | 79 | 1008.0 |
| 20260507140010 | 50 | 278 | 2.0 | 8.0 | 0.00 | 0.76 | 0.00 | 80 | 1008.0 |
| 20260507135510 | 50 | 360 | 1.0 | 11.0 | 0.00 | 0.76 | 0.00 | 82 | 1008.0 |
| 20260507135010 | 48 | 263 | 2.0 | 11.0 | 0.00 | 0.76 | 0.00 | 82 | 1008.1 |
| 20260507134512 | 48 | 253 | 4.0 | 10.0 | 0.00 | 0.76 | 0.00 | 80 | 1008.1 |
| 20260507134011 | 48 | 247 | 3.0 | 13.0 | 0.00 | 0.76 | 0.00 | 80 | 1008.1 |
| 20260507133510 | 49 | 317 | 4.0 | 13.0 | 0.00 | 0.76 | 0.00 | 79 | 1008.3 |
| 20260507133008 | 50 | 303 | 5.0 | 14.0 | 0.00 | 0.76 | 0.00 | 80 | 1008.1 |
| 20260507132508 | 49 | 233 | 5.0 | 14.0 | 0.00 | 0.76 | 0.00 | 82 | 1008.1 |
| 20260507132009 | 49 | 236 | 7.0 | 11.0 | 0.00 | 0.76 | 0.00 | 79 | 1008.1 |
| 20260507131615 | 49 | 261 | 3.0 | 14.0 | 0.00 | 0.76 | 0.00 | 80 | 1008.2 |
| 20260507131007 | 49 | 261 | 3.0 | 13.0 | 0.00 | 0.76 | 0.00 | 81 | 1008.2 |
| 20260507130506 | 49 | 304 | 7.0 | 13.0 | 0.00 | 0.76 | 0.00 | 79 | 1008.2 |
| 20260507130012 | 49 | 197 | 1.0 | 10.0 | 0.00 | 0.76 | 0.00 | 82 | 1008.3 |
| 20260507125506 | 48 | 277 | 4.0 | 10.0 | 0.00 | 0.76 | 0.00 | 80 | 1008.3 |
| 20260507125004 | 48 | 275 | 1.0 | 9.0 | 0.00 | 0.76 | 0.00 | 82 | 1008.2 |
| 20260507124502 | 48 | 271 | 3.0 | 9.0 | 0.00 | 0.76 | 0.00 | 82 | 1008.0 |
| 20260507124101 | 47 | 261 | 1.0 | 8.0 | 0.00 | 0.76 | 0.00 | 85 | 1008.0 |
| 20260507123600 | 47 | 320 | 3.0 | 8.0 | 0.00 | 0.76 | 0.00 | 84 | 1007.9 |
| 20260507123113 | 47 | 313 | 4.0 | 8.0 | 0.00 | 0.76 | 0.00 | 84 | 1007.9 |
| 20260507122559 | 46 | 248 | 2.0 | 7.0 | 0.00 | 0.76 | 0.00 | 85 | 1007.8 |
| 20260507122058 | 46 | 223 | 3.0 | 6.0 | 0.00 | 0.76 | 0.00 | 86 | 1008.0 |
| 20260507121556 | 46 | 227 | 3.0 | 6.0 | 0.00 | 0.76 | 0.00 | 87 | 1008.1 |
| 20260507121054 | 46 | 277 | 1.0 | 6.0 | 0.00 | 0.76 | 0.00 | 89 | 1008.2 |
| 20260507120553 | 45 | 195 | 2.0 | 10.0 | 0.00 | 0.76 | 0.00 | 90 | 1008.1 |
| 20260507120053 | 45 | 243 | 5.0 | 10.0 | 0.00 | 0.76 | 0.00 | 88 | 1008.4 |
| 20260507115553 | 45 | 237 | 3.0 | 10.0 | 0.00 | 0.76 | 0.00 | 89 | 1008.3 |
| 20260507115053 | 44 | 290 | 4.0 | 7.0 | 0.00 | 0.76 | 0.00 | 90 | 1008.2 |
| 20260507114554 | 44 | 284 | 2.0 | 10.0 | 0.00 | 0.76 | 0.00 | 90 | 1008.1 |
| 20260507114054 | 44 | 209 | 2.0 | 10.0 | 0.00 | 0.76 | 0.00 | 91 | 1008.1 |
| 20260507113549 | 44 | 228 | 2.0 | 11.0 | 0.00 | 0.76 | 0.00 | 91 | 1008.2 |
| 20260507113049 | 43 | 272 | 5.0 | 11.0 | 0.00 | 0.76 | 0.00 | 92 | 1008.1 |
| 20260507112551 | 43 | 254 | 4.0 | 9.0 | 0.00 | 0.76 | 0.00 | 92 | 1008.0 |
| 20260507112050 | 43 | 271 | 2.0 | 9.0 | 0.00 | 0.76 | 0.00 | 93 | 1008.0 |
| 20260507111548 | 42 | 257 | 3.0 | 9.0 | 0.00 | 0.76 | 0.00 | 94 | 1007.9 |
| 20260507111048 | 42 | 294 | 3.0 | 12.0 | 0.00 | 0.76 | 0.00 | 95 | 1007.9 |
| 20260507110548 | 42 | 237 | 4.0 | 12.0 | 0.00 | 0.76 | 0.00 | 95 | 1008.0 |
| 20260507110050 | 42 | 226 | 4.0 | 10.0 | 0.00 | 0.76 | 0.00 | 96 | 1008.0 |
| 20260507105545 | 41 | 271 | 3.0 | 10.0 | 0.00 | 0.76 | 0.00 | 97 | 1008.1 |
| 20260507105045 | 41 | 253 | 4.0 | 11.0 | 0.00 | 0.76 | 0.00 | 98 | 1008.0 |
| 20260507104544 | 41 | 237 | 3.0 | 11.0 | 0.00 | 0.76 | 0.00 | 98 | 1007.9 |
| 20260507104043 | 41 | 247 | 3.0 | 7.0 | 0.00 | 0.76 | 0.00 | 97 | 1007.7 |
| 20260507103543 | 41 | 261 | 2.0 | 7.0 | 0.00 | 0.76 | 0.00 | 97 | 1007.6 |
| 20260507103043 | 41 | 229 | 3.0 | 6.0 | 0.00 | 0.76 | 0.00 | 97 | 1007.6 |
| 20260507102544 | 41 | 221 | 2.0 | 6.0 | 0.00 | 0.76 | 0.00 | 97 | 1007.7 |
| 20260507102042 | 41 | 264 | 3.0 | 9.0 | 0.00 | 0.76 | 0.00 | 98 | 1007.8 |
| 20260507101542 | 40 | 304 | 4.0 | 9.0 | 0.00 | 0.76 | 0.00 | 98 | 1007.8 |
| 20260507101041 | 40 | 280 | 3.0 | 8.0 | 0.00 | 0.76 | 0.00 | 98 | 1007.8 |
| 20260507100540 | 40 | 279 | 4.0 | 10.0 | 0.00 | 0.76 | 0.00 | 98 | 1007.8 |
| 20260507100052 | 40 | 277 | 2.0 | 7.0 | 0.00 | 0.76 | 0.00 | 98 | 1007.9 |
| 20260507095539 | 41 | 300 | 3.0 | 8.0 | 0.00 | 0.76 | 0.00 | 98 | 1007.8 |
| 20260507095041 | 41 | 224 | 4.0 | 9.0 | 0.00 | 0.76 | 0.00 | 98 | 1007.9 |
| 20260507094537 | 41 | 261 | 4.0 | 11.0 | 0.00 | 0.76 | 0.00 | 99 | 1007.9 |
| 20260507094037 | 41 | 282 | 4.0 | 12.0 | 0.00 | 0.76 | 0.00 | 99 | 1008.0 |
| 20260507093536 | 41 | 284 | 4.0 | 12.0 | 0.00 | 0.76 | 0.00 | 98 | 1008.0 |
| 20260507093036 | 41 | 238 | 3.0 | 6.0 | 0.00 | 0.76 | 0.00 | 98 | 1008.0 |
| 20260507092536 | 41 | 268 | 3.0 | 7.0 | 0.00 | 0.76 | 0.00 | 98 | 1007.9 |
| 20260507092032 | 41 | 199 | 4.0 | 8.0 | 0.00 | 0.76 | 0.00 | 97 | 1007.7 |
| 20260507091538 | 41 | 241 | 2.0 | 8.0 | 0.00 | 0.76 | 0.00 | 97 | 1007.5 |
| 20260507091032 | 41 | 291 | 3.0 | 8.0 | 0.00 | 0.76 | 0.00 | 97 | 1007.5 |
| 20260507090531 | 42 | 279 | 3.0 | 10.0 | 0.00 | 0.76 | 0.00 | 97 | 1007.6 |
| 20260507090031 | 42 | 263 | 3.0 | 12.0 | 0.00 | 0.76 | 0.00 | 98 | 1007.5 |
| 20260507085529 | 42 | 280 | 3.0 | 12.0 | 0.00 | 0.76 | 0.00 | 98 | 1007.6 |
| 20260507085029 | 42 | 271 | 4.0 | 9.0 | 0.00 | 0.76 | 0.00 | 98 | 1007.7 |
| 20260507084530 | 42 | 287 | 3.0 | 8.0 | 0.00 | 0.76 | 0.00 | 98 | 1007.5 |
| 20260507084028 | 42 | 279 | 2.0 | 8.0 | 0.00 | 0.76 | 0.00 | 98 | 1007.4 |
| 20260507083527 | 42 | 281 | 4.0 | 12.0 | 0.00 | 0.76 | 0.00 | 98 | 1007.3 |
| 20260507083027 | 42 | 275 | 4.0 | 12.0 | 0.00 | 0.76 | 0.00 | 98 | 1007.4 |
| 20260507082526 | 42 | 286 | 2.0 | 10.0 | 0.00 | 0.76 | 0.00 | 98 | 1007.3 |
| 20260507082025 | 42 | 279 | 3.0 | 10.0 | 0.00 | 0.76 | 0.00 | 99 | 1007.4 |
| 20260507081525 | 42 | 280 | 5.0 | 13.0 | 0.00 | 0.76 | 0.00 | 99 | 1007.5 |
| 20260507081023 | 42 | 301 | 6.0 | 13.0 | 0.00 | 0.76 | 0.00 | 99 | 1007.5 |
| 20260507080523 | 42 | 269 | 6.0 | 13.0 | 0.00 | 0.76 | 0.00 | 99 | 1007.3 |
| 20260507080022 | 43 | 277 | 6.0 | 12.0 | 0.00 | 0.76 | 0.00 | 99 | 1007.2 |
| 20260507075522 | 43 | 246 | 6.0 | 12.0 | 0.00 | 0.76 | 0.00 | 100 | 1007.1 |
| 20260507075021 | 43 | 257 | 7.0 | 12.0 | 0.00 | 0.76 | 0.00 | 100 | 1007.1 |
| 20260507074520 | 43 | 248 | 7.0 | 11.0 | 0.00 | 0.76 | 0.00 | 100 | 1007.2 |
| 20260507074023 | 43 | 262 | 5.0 | 9.0 | 0.00 | 0.76 | 0.00 | 100 | 1007.0 |
| 20260507073518 | 43 | 287 | 3.0 | 7.0 | 0.00 | 0.76 | 0.00 | 100 | 1006.9 |
| 20260507073018 | 43 | 292 | 1.0 | 7.0 | 0.00 | 0.76 | 0.00 | 100 | 1006.9 |
| 20260507072518 | 43 | 343 | 1.0 | 7.0 | 0.00 | 0.76 | 0.00 | 100 | 1006.7 |
| 20260507072015 | 43 | 267 | 2.0 | 7.0 | 0.00 | 0.76 | 0.00 | 100 | 1006.7 |
| 20260507071523 | 43 | 279 | 1.0 | 7.0 | 0.00 | 0.76 | 0.00 | 100 | 1006.6 |
| 20260507071020 | 43 | 257 | 2.0 | 7.0 | 0.00 | 0.76 | 0.00 | 100 | 1006.9 |
| 20260507070515 | 43 | 281 | 0.0 | 6.0 | 0.00 | 0.76 | 0.00 | 100 | 1006.7 |
| 20260507070014 | 43 | 266 | 1.0 | 7.0 | 0.00 | 0.76 | 0.00 | 100 | 1007.0 |
| 20260507065514 | 43 | 306 | 2.0 | 7.0 | 0.00 | 0.76 | 0.00 | 100 | 1007.2 |
| 20260507065013 | 43 | 264 | 2.0 | 6.0 | 0.00 | 0.76 | 0.00 | 100 | 1007.1 |
| 20260507064512 | 43 | 46 | 1.0 | 5.0 | 0.00 | 0.76 | 0.00 | 100 | 1006.9 |
| 20260507064015 | 43 | 284 | 2.0 | 5.0 | 0.00 | 0.76 | 0.00 | 100 | 1007.0 |
| 20260507063512 | 43 | 218 | 1.0 | 7.0 | 0.00 | 0.76 | 0.00 | 100 | 1006.9 |
| 20260507063011 | 43 | 261 | 3.0 | 8.0 | 0.00 | 0.76 | 0.00 | 100 | 1007.1 |
| 20260507062512 | 43 | 225 | 2.0 | 7.0 | 0.00 | 0.76 | 0.00 | 100 | 1006.8 |
| 20260507062009 | 44 | 221 | 1.0 | 8.0 | 0.00 | 0.76 | 0.00 | 100 | 1006.7 |
| 20260507061509 | 44 | 193 | 4.0 | 9.0 | 0.00 | 0.76 | 0.00 | 100 | 1006.6 |
| 20260507061010 | 44 | 212 | 3.0 | 13.0 | 0.00 | 0.76 | 0.00 | 100 | 1006.7 |
| 20260507060611 | 44 | 196 | 2.0 | 13.0 | 0.00 | 0.76 | 0.00 | 100 | 1006.6 |
| 20260507060008 | 44 | 221 | 4.0 | 11.0 | 0.00 | 0.76 | 0.00 | 100 | 1006.7 |
| 20260507055508 | 44 | 234 | 4.0 | 17.0 | 0.00 | 0.76 | 0.00 | 100 | 1006.6 |
| 20260507055007 | 44 | 221 | 5.0 | 17.0 | 0.00 | 0.76 | 0.00 | 100 | 1006.4 |
| 20260507054506 | 44 | 219 | 5.0 | 14.0 | 0.00 | 0.76 | 0.00 | 100 | 1006.2 |
| 20260507054006 | 44 | 266 | 4.0 | 15.0 | 0.00 | 0.76 | 0.00 | 100 | 1006.2 |
| 20260507053506 | 44 | 198 | 4.0 | 15.0 | 0.00 | 0.76 | 0.00 | 100 | 1006.4 |
| 20260507053006 | 44 | 257 | 6.0 | 18.0 | 0.00 | 0.76 | 0.00 | 100 | 1006.4 |
| 20260507052504 | 44 | 242 | 7.0 | 18.0 | 0.00 | 0.76 | 0.00 | 100 | 1006.4 |
| 20260507052003 | 44 | 259 | 8.0 | 15.0 | 0.00 | 0.76 | 0.00 | 100 | 1006.4 |
| 20260507051502 | 44 | 298 | 8.0 | 15.0 | 0.00 | 0.76 | 0.00 | 100 | 1006.4 |
| 20260507051002 | 44 | 266 | 6.0 | 14.0 | 0.00 | 0.76 | 0.00 | 100 | 1006.4 |
| 20260507050501 | 44 | 186 | 6.0 | 14.0 | 0.00 | 0.76 | 0.00 | 100 | 1006.3 |
| 20260507050100 | 44 | 255 | 6.0 | 15.0 | 0.00 | 0.76 | 0.00 | 100 | 1006.4 |
| 20260507045600 | 44 | 243 | 7.0 | 15.0 | 0.00 | 0.76 | 0.00 | 100 | 1006.4 |
| 20260507045059 | 44 | 236 | 8.0 | 12.0 | 0.00 | 0.76 | 0.00 | 100 | 1006.5 |
| 20260507044600 | 45 | 232 | 5.0 | 12.0 | 0.00 | 0.76 | 0.00 | 100 | 1006.3 |
| 20260507044057 | 45 | 259 | 6.0 | 10.0 | 0.00 | 0.76 | 0.00 | 100 | 1006.5 |
| 20260507043556 | 45 | 244 | 5.0 | 10.0 | 0.00 | 0.76 | 0.00 | 100 | 1006.5 |
| 20260507043058 | 45 | 240 | 5.0 | 12.0 | 0.01 | 0.76 | 0.00 | 100 | 1006.4 |
| 20260507042557 | 45 | 276 | 6.0 | 14.0 | 0.01 | 0.76 | 0.00 | 100 | 1006.5 |
| 20260507042053 | 45 | 288 | 5.0 | 14.0 | 0.01 | 0.76 | 0.00 | 100 | 1006.4 |
| 20260507041553 | 45 | 240 | 3.0 | 12.0 | 0.01 | 0.76 | 0.00 | 100 | 1006.1 |
| 20260507041053 | 45 | 208 | 6.0 | 16.0 | 0.01 | 0.76 | 0.00 | 100 | 1006.4 |
| 20260507040551 | 45 | 315 | 7.0 | 16.0 | 0.02 | 0.76 | 0.00 | 100 | 1006.3 |
| 20260507040049 | 45 | 94 | 4.0 | 16.0 | 0.02 | 0.76 | 0.00 | 100 | 1006.4 |
| 20260507035549 | 45 | 273 | 6.0 | 12.0 | 0.02 | 0.76 | 0.76 | 100 | 1006.4 |
| 20260507035048 | 45 | 271 | 5.0 | 12.0 | 0.02 | 0.76 | 0.76 | 100 | 1006.4 |
| 20260507034548 | 45 | 284 | 3.0 | 11.0 | 0.02 | 0.76 | 0.76 | 100 | 1006.3 |
| 20260507034047 | 45 | 242 | 4.0 | 12.0 | 0.02 | 0.76 | 0.76 | 100 | 1006.3 |
| 20260507033547 | 46 | 254 | 3.0 | 12.0 | 0.01 | 0.75 | 0.75 | 100 | 1006.4 |
| 20260507033046 | 46 | 265 | 4.0 | 13.0 | 0.01 | 0.75 | 0.75 | 100 | 1006.5 |
| 20260507032546 | 46 | 264 | 5.0 | 13.0 | 0.01 | 0.75 | 0.75 | 100 | 1006.3 |
| 20260507032044 | 46 | 281 | 4.0 | 13.0 | 0.01 | 0.75 | 0.75 | 100 | 1006.2 |
| 20260507031545 | 46 | 299 | 8.0 | 13.0 | 0.01 | 0.75 | 0.75 | 100 | 1006.4 |
| 20260507031044 | 46 | 258 | 3.0 | 11.0 | 0.02 | 0.75 | 0.75 | 100 | 1006.2 |
| 20260507030544 | 46 | 277 | 4.0 | 16.0 | 0.01 | 0.74 | 0.74 | 100 | 1006.2 |
| 20260507030042 | 46 | 281 | 7.0 | 16.0 | 0.01 | 0.74 | 0.74 | 100 | 1006.4 |
| 20260507025541 | 46 | 290 | 5.0 | 12.0 | 0.01 | 0.74 | 0.74 | 100 | 1006.4 |
| 20260507025041 | 46 | 236 | 5.0 | 12.0 | 0.01 | 0.74 | 0.74 | 100 | 1006.3 |
| 20260507024542 | 47 | 257 | 5.0 | 14.0 | 0.01 | 0.74 | 0.74 | 100 | 1006.1 |
| 20260507024040 | 46 | 188 | 7.0 | 14.0 | 0.01 | 0.74 | 0.74 | 100 | 1006.0 |
| 20260507023540 | 47 | 286 | 3.0 | 12.0 | 0.02 | 0.74 | 0.74 | 100 | 1005.8 |
| 20260507023043 | 47 | 266 | 4.0 | 13.0 | 0.02 | 0.74 | 0.74 | 100 | 1005.8 |
| 20260507022539 | 47 | 267 | 6.0 | 14.0 | 0.02 | 0.74 | 0.74 | 100 | 1005.7 |
| 20260507022038 | 47 | 288 | 7.0 | 18.0 | 0.02 | 0.74 | 0.74 | 100 | 1005.9 |
| 20260507021542 | 47 | 282 | 10.0 | 18.0 | 0.02 | 0.74 | 0.74 | 100 | 1005.7 |
| 20260507021036 | 47 | 294 | 6.0 | 14.0 | 0.01 | 0.73 | 0.73 | 100 | 1005.7 |
| 20260507020535 | 48 | 273 | 7.0 | 14.0 | 0.01 | 0.73 | 0.73 | 100 | 1005.8 |
| 20260507020036 | 48 | 263 | 7.0 | 19.0 | 0.01 | 0.73 | 0.73 | 100 | 1005.7 |
| 20260507015537 | 48 | 280 | 9.0 | 19.0 | 0.01 | 0.73 | 0.73 | 100 | 1005.6 |
| 20260507015034 | 49 | 268 | 6.0 | 14.0 | 0.01 | 0.73 | 0.73 | 100 | 1005.6 |
| 20260507014531 | 49 | 278 | 5.0 | 16.0 | 0.01 | 0.73 | 0.73 | 100 | 1005.6 |
| 20260507014029 | 49 | 233 | 6.0 | 16.0 | 0.01 | 0.73 | 0.73 | 100 | 1005.5 |
| 20260507013528 | 50 | 279 | 5.0 | 15.0 | 0.01 | 0.72 | 0.72 | 100 | 1005.7 |
| 20260507013027 | 50 | 259 | 7.0 | 15.0 | 0.01 | 0.72 | 0.72 | 100 | 1005.4 |
| 20260507012527 | 50 | 272 | 5.0 | 14.0 | 0.01 | 0.72 | 0.72 | 100 | 1005.3 |
| 20260507012026 | 50 | 237 | 6.0 | 14.0 | 0.01 | 0.72 | 0.72 | 100 | 1005.2 |
| 20260507011524 | 51 | 219 | 5.0 | 14.0 | 0.02 | 0.72 | 0.72 | 100 | 1005.2 |
| 20260507011023 | 51 | 254 | 7.0 | 14.0 | 0.02 | 0.72 | 0.72 | 100 | 1005.1 |
| 20260507010522 | 51 | 245 | 4.0 | 11.0 | 0.02 | 0.72 | 0.72 | 100 | 1005.1 |
| 20260507010026 | 52 | 243 | 4.0 | 12.0 | 0.04 | 0.72 | 0.72 | 100 | 1005.1 |
| 20260507005520 | 52 | 244 | 6.0 | 12.0 | 0.05 | 0.72 | 0.72 | 100 | 1005.2 |
| 20260507005018 | 52 | 268 | 4.0 | 12.0 | 0.06 | 0.72 | 0.72 | 100 | 1005.1 |
| 20260507004519 | 52 | 248 | 4.0 | 10.0 | 0.08 | 0.72 | 0.72 | 100 | 1004.9 |
| 20260507004017 | 52 | 277 | 4.0 | 12.0 | 0.12 | 0.72 | 0.72 | 100 | 1004.9 |
| 20260507003517 | 53 | 263 | 3.0 | 12.0 | 0.13 | 0.71 | 0.71 | 100 | 1004.9 |
| 20260507003015 | 53 | 295 | 2.0 | 12.0 | 0.13 | 0.71 | 0.71 | 100 | 1004.9 |
| 20260507002514 | 53 | 232 | 5.0 | 13.0 | 0.13 | 0.71 | 0.71 | 100 | 1004.7 |
| 20260507002016 | 53 | 306 | 4.0 | 13.0 | 0.14 | 0.71 | 0.71 | 100 | 1004.7 |
| 20260507001516 | 54 | 311 | 2.0 | 12.0 | 0.13 | 0.70 | 0.70 | 100 | 1004.7 |
| 20260507001010 | 54 | 269 | 6.0 | 12.0 | 0.15 | 0.70 | 0.70 | 100 | 1004.7 |
| 20260507000509 | 55 | 241 | 6.0 | 11.0 | 0.17 | 0.69 | 0.69 | 100 | 1004.6 |
| 20260507000009 | 55 | 269 | 4.0 | 10.0 | 0.20 | 0.68 | 0.68 | 100 | 1004.5 |
| 20260506235508 | 56 | 239 | 4.0 | 9.0 | 0.22 | 0.67 | 0.67 | 100 | 1004.3 |
| 20260506235009 | 57 | 256 | 4.0 | 10.0 | 0.23 | 0.65 | 0.65 | 100 | 1004.2 |
| 20260506234509 | 57 | 271 | 3.0 | 10.0 | 0.22 | 0.63 | 0.63 | 100 | 1004.2 |
| 20260506234007 | 58 | 231 | 3.0 | 8.0 | 0.19 | 0.59 | 0.59 | 100 | 1004.2 |
| 20260506233512 | 58 | 229 | 4.0 | 9.0 | 0.19 | 0.57 | 0.57 | 100 | 1004.0 |
| 20260506233011 | 58 | 244 | 3.0 | 6.0 | 0.20 | 0.57 | 0.57 | 100 | 1004.1 |
| 20260506232507 | 58 | 184 | 3.0 | 9.0 | 0.20 | 0.57 | 0.57 | 100 | 1004.0 |
| 20260506232006 | 58 | 276 | 4.0 | 9.0 | 0.19 | 0.56 | 0.56 | 100 | 1003.9 |
| 20260506231506 | 58 | 198 | 3.0 | 8.0 | 0.19 | 0.56 | 0.56 | 100 | 1003.9 |
| 20260506231010 | 58 | 199 | 2.0 | 8.0 | 0.16 | 0.54 | 0.54 | 100 | 1004.1 |
| 20260506230504 | 58 | 264 | 1.0 | 7.0 | 0.13 | 0.51 | 0.51 | 100 | 1004.1 |
| 20260506230014 | 58 | 259 | 1.0 | 7.0 | 0.09 | 0.51 | 0.47 | 100 | 1004.1 |
| 20260506225503 | 58 | 273 | 1.0 | 9.0 | 0.07 | 0.49 | 0.45 | 100 | 1004.1 |
| 20260506225003 | 58 | 221 | 1.0 | 9.0 | 0.04 | 0.46 | 0.42 | 100 | 1004.1 |
| 20260506224503 | 58 | 250 | 3.0 | 10.0 | 0.04 | 0.45 | 0.41 | 100 | 1004.1 |
| 20260506224002 | 58 | 217 | 3.0 | 11.0 | 0.03 | 0.44 | 0.40 | 100 | 1003.9 |
| 20260506223502 | 58 | 227 | 4.0 | 11.0 | 0.02 | 0.43 | 0.39 | 100 | 1004.1 |
| 20260506223002 | 58 | 207 | 3.0 | 12.0 | 0.02 | 0.42 | 0.38 | 100 | 1004.0 |
| 20260506222501 | 58 | 213 | 6.0 | 12.0 | 0.02 | 0.42 | 0.38 | 100 | 1004.1 |
| 20260506222100 | 58 | 250 | 5.0 | 9.0 | 0.02 | 0.42 | 0.38 | 100 | 1004.1 |
| 20260506221628 | 58 | 179 | 5.0 | 10.0 | 0.03 | 0.42 | 0.38 | 100 | 1004.1 |
| 20260506221059 | 58 | 202 | 4.0 | 9.0 | 0.03 | 0.42 | 0.38 | 100 | 1004.2 |
| 20260506220558 | 58 | 216 | 2.0 | 7.0 | 0.05 | 0.42 | 0.38 | 100 | 1004.4 |
| 20260506220129 | 58 | 194 | 3.0 | 9.0 | 0.06 | 0.42 | 0.38 | 100 | 1004.5 |
| 20260506215557 | 58 | 196 | 5.0 | 9.0 | 0.06 | 0.43 | 0.38 | 100 | 1004.5 |
| 20260506215056 | 58 | 212 | 4.0 | 9.0 | 0.06 | 0.43 | 0.38 | 100 | 1004.4 |
| 20260506214556 | 58 | 227 | 4.0 | 10.0 | 0.05 | 0.42 | 0.37 | 100 | 1004.4 |
| 20260506214055 | 58 | 234 | 4.0 | 10.0 | 0.06 | 0.42 | 0.37 | 100 | 1004.4 |
| 20260506213554 | 58 | 208 | 3.0 | 8.0 | 0.06 | 0.42 | 0.37 | 100 | 1004.5 |
| 20260506213106 | 58 | 192 | 2.0 | 5.0 | 0.05 | 0.41 | 0.36 | 100 | 1004.5 |
| 20260506212553 | 58 | 198 | 1.0 | 6.0 | 0.05 | 0.41 | 0.36 | 100 | 1004.5 |
| 20260506212052 | 58 | 192 | 2.0 | 7.0 | 0.05 | 0.41 | 0.36 | 100 | 1004.5 |
| 20260506211553 | 58 | 157 | 2.0 | 7.0 | 0.04 | 0.40 | 0.35 | 100 | 1004.5 |
| 20260506211050 | 58 | 180 | 0.0 | 6.0 | 0.05 | 0.40 | 0.35 | 100 | 1004.5 |
| 20260506210550 | 58 | 146 | 2.0 | 6.0 | 0.03 | 0.38 | 0.33 | 100 | 1004.6 |
| 20260506210056 | 58 | 159 | 1.0 | 4.0 | 0.02 | 0.37 | 0.32 | 100 | 1004.5 |
| 20260506205548 | 58 | 113 | 1.0 | 3.0 | 0.04 | 0.37 | 0.32 | 100 | 1004.5 |
| 20260506205049 | 58 | 133 | 0.0 | 4.0 | 0.07 | 0.37 | 0.32 | 100 | 1004.6 |
| 20260506204547 | 58 | 184 | 2.0 | 4.0 | 0.09 | 0.37 | 0.32 | 100 | 1004.8 |
| 20260506204045 | 58 | 182 | 2.0 | 7.0 | 0.10 | 0.36 | 0.31 | 100 | 1004.9 |
| 20260506203547 | 58 | 192 | 0.0 | 7.0 | 0.11 | 0.36 | 0.31 | 100 | 1004.9 |
| 20260506203044 | 58 | 215 | 2.0 | 7.0 | 0.11 | 0.36 | 0.31 | 100 | 1004.9 |
| 20260506202543 | 58 | 238 | 1.0 | 5.0 | 0.12 | 0.36 | 0.31 | 100 | 1004.9 |
| 20260506202042 | 58 | 220 | 0.0 | 4.0 | 0.13 | 0.36 | 0.31 | 100 | 1005.1 |
| 20260506201546 | 58 | 220 | 2.0 | 9.0 | 0.13 | 0.36 | 0.31 | 100 | 1005.1 |
| 20260506201041 | 58 | 186 | 3.0 | 11.0 | 0.12 | 0.35 | 0.30 | 100 | 1005.3 |
| 20260506200538 | 58 | 219 | 5.0 | 11.0 | 0.13 | 0.35 | 0.30 | 100 | 1005.3 |
| 20260506200037 | 58 | 188 | 4.0 | 8.0 | 0.14 | 0.35 | 0.30 | 100 | 1005.3 |
| 20260506195535 | 58 | 199 | 3.0 | 10.0 | 0.11 | 0.32 | 0.27 | 100 | 1005.4 |
| 20260506195034 | 58 | 202 | 3.0 | 6.0 | 0.08 | 0.28 | 0.24 | 100 | 1005.4 |
| 20260506194533 | 58 | 244 | 2.0 | 6.0 | 0.08 | 0.28 | 0.23 | 100 | 1005.3 |
| 20260506194033 | 58 | 165 | 2.0 | 7.0 | 0.06 | 0.26 | 0.21 | 100 | 1005.2 |
| 20260506193534 | 58 | 215 | 4.0 | 7.0 | 0.05 | 0.25 | 0.20 | 100 | 1005.3 |